This demonstration page uses our WeatherBlox Daily Observations layout. Learn more.

Left ArrowRight Arrow

Hourly Observations for February 26, 2017

Temp ( °F °C ) Dew Point ( °F °C ) Humidity (%) Winds ( mph kmh ) Pressure ( in mb ) Visibility ( mi km ) Precip ( " mm )
12:51 am 00:51 Partly Cloudy 39 3.9 15 -9.4 38 38 ENE 5 7 29.89 1012 10 16 N/A
1:51 am 01:51 Mostly Cloudy 40 4.4 16 -8.9 38 38 E 3 6 29.89 1012 10 16 N/A
2:51 am 02:51 Partly Cloudy 41 5 18 -7.8 39 39 SE 5 7 29.87 1012 10 16 N/A
3:51 am 03:51 Partly Cloudy 43 6.1 16 -8.9 34 34 N N/A 29.85 1011 10 16 N/A
4:51 am 04:51 Cloudy 41 5 19 -7.2 41 41 ENE 5 7 29.85 1011 10 16 N/A
5:51 am 05:51 Cloudy 41 5 20 -6.7 43 43 ESE 3 6 29.85 1011 10 16 N/A
6:51 am 06:51 Cloudy 43 6.1 19 -7.2 38 38 SSE 8 13 29.85 1011 10 16 N/A
7:51 am 07:51 Cloudy 46 7.8 17 -8.3 31 31 SE 8 13 29.85 1011 10 16 N/A
8:51 am 08:51 Mostly Cloudy 50 10 17 -8.3 27 27 N N/A 29.87 1012 10 16 N/A
9:51 am 09:51 Cloudy 56 13.3 13 -10.6 18 18 N N/A 29.85 1011 10 16 N/A
10:51 am 10:51 Mostly Cloudy 59 15 14 -10 17 17 VRB 5 7 29.86 1011 10 16 N/A
11:51 am 11:51 Cloudy 60 15.6 15 -9.4 17 17 WNW 13 20 29.89 1012 10 16 N/A
12:51 pm 12:51 Mostly Cloudy 62 16.7 18 -7.8 18 18 NNW 14 22 29.86 1011 10 16 N/A
1:51 pm 13:51 Mostly Cloudy 60 15.6 20 -6.7 21 21 NW 8 13 29.84 1010 10 16 N/A
2:51 pm 14:51 Mostly Cloudy 63 17.2 24 -4.4 23 23 WNW 12 19 29.81 1009 10 16 N/A
3:51 pm 15:51 Cloudy 61 16.1 26 -3.3 26 26 NNW 13 20 29.82 1010 10 16 N/A
4:51 pm 16:51 Mostly Cloudy 57 13.9 26 -3.3 30 30 NW 9 15 29.84 1011 10 16 N/A
5:51 pm 17:51 Sunny 57 13.9 27 -2.8 32 32 NW 9 15 29.85 1011 10 16 N/A
6:51 pm 18:51 Clear 53 11.7 27 -2.8 37 37 N N/A 29.88 1012 10 16 N/A
7:51 pm 19:51 Mostly Clear 49 9.4 26 -3.3 41 41 NNW 3 6 29.88 1012 10 16 N/A
8:51 pm 20:51 Clear 45 7.2 26 -3.3 48 48 N 5 7 29.88 1012 10 16 N/A
9:51 pm 21:51 Clear 40 4.4 25 -3.9 55 55 N N/A 29.90 1013 10 16 N/A
10:51 pm 22:51 Clear 41 5 26 -3.3 55 55 NE 6 9 29.89 1012 10 16 N/A
11:51 pm 23:51 Clear 40 4.4 26 -3.3 58 58 S 5 7 29.90 1012 10 16 N/A

Powered by AerisWeather